When you browse on this site, cookies collect data to enhance your experience and personalize the content and advertising you see.
Visit our Privacy Policy to learn more. By continuing to use the site, you agree to this use of cookies and data.
  • Em Portugal
  • Lista de países
  • Para 7 dias
  • Temperatura da água
  • Mapas de satélite
  • Mapa do tempo
  • Widgets de tempo
  • user-avatar
    Iniciar Sessão

    Previsão horária em Sunny Beach

    Hoje, 18 Dezembro, Terça-feira

    Tempo Temperatura Precipitação Vento Pressão Humidade
    00:00 +3°C° 0.3 mm 5 m/s 738 mmHg 91%
    01:00 +3°C° 0.3 mm 5 m/s 738 mmHg 91%
    02:00 +2°C° 0 mm 6 m/s 738 mmHg 90%
    03:00 +2°C° 0.3 mm 6 m/s 738 mmHg 90%
    04:00 +2°C° 0.3 mm 6 m/s 738 mmHg 90%
    05:00 +2°C° 0.3 mm 6 m/s 738 mmHg 90%
    06:00 +2°C° 0.3 mm 7 m/s 738 mmHg 90%
    07:00 +2°C° 0.3 mm 7 m/s 738 mmHg 90%
    08:00 0°C° 0 mm 7 m/s 738 mmHg 89%
    09:00 0°C° 0.2 mm 8 m/s 739 mmHg 89%
    10:00 0°C° 0.2 mm 8 m/s 739 mmHg 88%
    11:00 0°C° 0.2 mm 8 m/s 739 mmHg 88%
    12:00 0°C° 0.1 mm 9 m/s 739 mmHg 87%
    13:00 0°C° 0.1 mm 9 m/s 739 mmHg 87%
    14:00 0°C° 0.1 mm 9 m/s 739 mmHg 86%
    15:00 -1°C° 0.1 mm 9 m/s 739 mmHg 86%
    16:00 -1°C° 0.1 mm 9 m/s 739 mmHg 87%
    17:00 -3°C° 0.1 mm 9 m/s 739 mmHg 87%
    18:00 -3°C° 0.3 mm 9 m/s 739 mmHg 87%
    19:00 -4°C° 0.3 mm 9 m/s 739 mmHg 88%
    20:00 -4°C° 0.3 mm 9 m/s 739 mmHg 88%
    21:00 -4°C° 0.4 mm 9 m/s 739 mmHg 88%
    22:00 -4°C° 0.4 mm 9 m/s 739 mmHg 89%
    23:00 -5°C° 0.4 mm 10 m/s 739 mmHg 89%

    Amanhã, 19 Dezembro, Quarta-feira

    Tempo Temperatura Precipitação Vento Pressão Humidade
    00:00 -5°C° 0.3 mm 10 m/s 739 mmHg 89%
    01:00 -5°C° 0.3 mm 10 m/s 739 mmHg 88%
    02:00 -5°C° 0.3 mm 10 m/s 739 mmHg 88%
    03:00 -5°C° 0.4 mm 10 m/s 739 mmHg 88%
    04:00 -5°C° 0.4 mm 10 m/s 739 mmHg 88%
    05:00 -7°C° 0.4 mm 10 m/s 739 mmHg 88%
    06:00 -7°C° 0.4 mm 10 m/s 740 mmHg 88%
    07:00 -7°C° 0.4 mm 10 m/s 740 mmHg 88%
    08:00 -6°C° 0.4 mm 9 m/s 740 mmHg 87%
    09:00 -6°C° 0.3 mm 9 m/s 740 mmHg 86%
    10:00 -6°C° 0.3 mm 9 m/s 741 mmHg 85%
    11:00 -6°C° 0.3 mm 9 m/s 741 mmHg 85%
    12:00 -5°C° 0.3 mm 9 m/s 741 mmHg 84%
    13:00 -5°C° 0.3 mm 9 m/s 741 mmHg 83%
    14:00 -5°C° 0.3 mm 9 m/s 741 mmHg 82%
    15:00 -5°C° 0.2 mm 8 m/s 741 mmHg 83%
    16:00 -6°C° 0.2 mm 8 m/s 742 mmHg 83%
    17:00 -6°C° 0.2 mm 8 m/s 742 mmHg 84%
    18:00 -6°C° 0.1 mm 8 m/s 742 mmHg 85%
    19:00 -6°C° 0.1 mm 8 m/s 742 mmHg 85%
    20:00 -6°C° 0.1 mm 7 m/s 743 mmHg 86%
    21:00 -6°C° 0.1 mm 7 m/s 743 mmHg 86%
    22:00 -5°C° 0.1 mm 6 m/s 743 mmHg 87%
    23:00 -5°C° 0.1 mm 6 m/s 743 mmHg 87%

    Depois de amanhã, 20 Dezembro, Quinta-feira

    Tempo Temperatura Precipitação Vento Pressão Humidade
    00:00 -5°C° 0 mm 5 m/s 743 mmHg 87%
    01:00 -6°C° 0 mm 5 m/s 743 mmHg 87%
    02:00 -5°C° 0 mm 4 m/s 743 mmHg 87%
    03:00 -5°C° 0 mm 4 m/s 743 mmHg 87%
    04:00 -5°C° 0 mm 3 m/s 743 mmHg 87%
    05:00 -5°C° 0 mm 3 m/s 743 mmHg 87%
    06:00 -5°C° 0 mm 3 m/s 744 mmHg 87%
    07:00 -5°C° 0 mm 3 m/s 744 mmHg 87%
    08:00 -4°C° 0 mm 2 m/s 744 mmHg 86%
    09:00 -3°C° 0 mm 2 m/s 745 mmHg 84%
    10:00 -1°C° 0 mm 2 m/s 745 mmHg 82%
    11:00 +1°C° 0 mm 2 m/s 745 mmHg 80%
    12:00 +3°C° 0 mm 1 m/s 745 mmHg 80%
    13:00 +3°C° 0 mm 1 m/s 744 mmHg 81%
    14:00 +4°C° 0 mm 1 m/s 744 mmHg 81%
    15:00 +3°C° 0 mm 1 m/s 744 mmHg 85%
    16:00 +2°C° 0 mm 1 m/s 744 mmHg 88%
    17:00 +1°C° 0 mm 1 m/s 744 mmHg 91%
    18:00 +1°C° 0 mm 1 m/s 744 mmHg 92%
    19:00 +1°C° 0 mm 1 m/s 744 mmHg 93%
    20:00 +1°C° 0 mm 1 m/s 744 mmHg 94%
    21:00 +1°C° 0 mm 1 m/s 744 mmHg 94%
    22:00 +1°C° 0 mm 1 m/s 744 mmHg 94%
    23:00 +1°C° 0 mm 1 m/s 744 mmHg 94%

    21 Dezembro, Sexta-feira

    Tempo Temperatura Precipitação Vento Pressão Humidade
    00:00 +1°C° 0 mm 1 m/s 744 mmHg 93%
    01:00 +1°C° 0 mm 1 m/s 744 mmHg 93%
    02:00 +1°C° 0 mm 1 m/s 744 mmHg 93%
    03:00 +1°C° 0 mm 1 m/s 744 mmHg 93%
    04:00 +1°C° 0 mm 1 m/s 744 mmHg 93%
    05:00 +1°C° 0 mm 1 m/s 743 mmHg 93%
    06:00 +1°C° 0 mm 1 m/s 743 mmHg 94%
    07:00 +1°C° 0 mm 1 m/s 744 mmHg 94%
    08:00 +1°C° 0 mm 1 m/s 744 mmHg 94%
    09:00 +2°C° 0 mm 1 m/s 744 mmHg 93%
    10:00 +3°C° 0 mm 1 m/s 744 mmHg 92%
    11:00 +3°C° 0 mm 2 m/s 744 mmHg 92%
    12:00 +3°C° 0 mm 2 m/s 743 mmHg 90%
    13:00 +4°C° 0 mm 2 m/s 743 mmHg 89%
    14:00 +4°C° 0 mm 2 m/s 743 mmHg 88%
    15:00 +3°C° 0 mm 2 m/s 743 mmHg 90%
    16:00 +2°C° 0 mm 2 m/s 743 mmHg 92%
    17:00 +1°C° 0 mm 2 m/s 743 mmHg 93%
    18:00 +1°C° 0 mm 2 m/s 743 mmHg 92%
    19:00 +1°C° 0 mm 2 m/s 743 mmHg 91%
    20:00 +1°C° 0 mm 2 m/s 743 mmHg 90%
    21:00 +1°C° 0 mm 2 m/s 743 mmHg 88%
    22:00 +1°C° 0 mm 2 m/s 743 mmHg 87%
    23:00 +1°C° 0 mm 2 m/s 742 mmHg 86%

    22 Dezembro, Sábado

    Tempo Temperatura Precipitação Vento Pressão Humidade
    00:00 +1°C° 0 mm 2 m/s 742 mmHg 87%
    01:00 +1°C° 0 mm 2 m/s 742 mmHg 87%
    02:00 -1°C° 0 mm 2 m/s 742 mmHg 88%
    03:00 +1°C° 0 mm 2 m/s 742 mmHg 88%
    04:00 +1°C° 0 mm 2 m/s 742 mmHg 88%
    05:00 +1°C° 0 mm 2 m/s 741 mmHg 88%
    06:00 +1°C° 0 mm 2 m/s 741 mmHg 88%
    07:00 +1°C° 0 mm 2 m/s 741 mmHg 89%
    08:00 0°C° 0 mm 3 m/s 741 mmHg 89%
    09:00 +2°C° 0 mm 3 m/s 742 mmHg 87%
    10:00 +3°C° 0 mm 3 m/s 742 mmHg 86%
    11:00 +4°C° 0 mm 3 m/s 742 mmHg 84%
    12:00 +5°C° 0 mm 4 m/s 741 mmHg 84%
    13:00 +5°C° 0 mm 4 m/s 741 mmHg 83%
    14:00 +6°C° 0 mm 4 m/s 741 mmHg 83%
    15:00 +5°C° 0 mm 4 m/s 741 mmHg 85%
    16:00 +4°C° 0 mm 4 m/s 741 mmHg 88%
    17:00 +3°C° 0 mm 4 m/s 740 mmHg 90%
    18:00 +3°C° 0 mm 3 m/s 741 mmHg 89%
    19:00 +3°C° 0 mm 3 m/s 741 mmHg 89%
    20:00 +3°C° 0 mm 3 m/s 741 mmHg 88%
    21:00 +3°C° 0 mm 3 m/s 741 mmHg 87%
    22:00 +3°C° 0 mm 3 m/s 741 mmHg 86%
    23:00 +3°C° 0 mm 3 m/s 741 mmHg 86%

    23 Dezembro, Domingo

    Tempo Temperatura Precipitação Vento Pressão Humidade
    00:00 +3°C° 0 mm 3 m/s 741 mmHg 85%
    01:00 +3°C° 0 mm 2 m/s 740 mmHg 85%
    02:00 +3°C° 0 mm 2 m/s 740 mmHg 85%
    03:00 +3°C° 0 mm 2 m/s 740 mmHg 85%
    04:00 +3°C° 0 mm 2 m/s 740 mmHg 84%
    05:00 +3°C° 0 mm 2 m/s 740 mmHg 84%
    06:00 +2°C° 0 mm 3 m/s 740 mmHg 83%
    07:00 +3°C° 0 mm 3 m/s 740 mmHg 83%
    08:00 +3°C° 0 mm 3 m/s 740 mmHg 83%
    09:00 +4°C° 0 mm 3 m/s 740 mmHg 81%
    10:00 +5°C° 0 mm 3 m/s 740 mmHg 80%
    11:00 +7°C° 0 mm 3 m/s 741 mmHg 78%
    12:00 +8°C° 0 mm 3 m/s 740 mmHg 76%
    13:00 +9°C° 0 mm 3 m/s 740 mmHg 75%
    14:00 +9°C° 0 mm 3 m/s 740 mmHg 73%
    15:00 +8°C° 0 mm 3 m/s 740 mmHg 76%
    16:00 +7°C° 0 mm 3 m/s 740 mmHg 79%
    17:00 +7°C° 0 mm 3 m/s 740 mmHg 81%
    18:00 +5°C° 0 mm 3 m/s 740 mmHg 81%
    19:00 +6°C° 0 mm 2 m/s 741 mmHg 81%
    20:00 +6°C° 0 mm 2 m/s 741 mmHg 81%
    21:00 +6°C° 0 mm 2 m/s 741 mmHg 82%
    22:00 +5°C° 0 mm 2 m/s 741 mmHg 83%
    23:00 +5°C° 0 mm 2 m/s 741 mmHg 83%
    Mostrar mais